星链-3238 (STARLINK-3238 )

导读

STARLINK-3238是美国SpaceX星链星座的成员,于2021年12月2日发射入轨,归属Starlink Group 4-3组网批次。星链星座旨在为全球提供高速低延迟宽带互联网服务,这款卫星搭载星链升级设计,依托近地轨道部署,可覆盖偏远地区网络盲区,该卫星与后续星链组网卫星共同推进星座全球覆盖计划,是SpaceX大规模部署星链进程中的一员。

基本信息
目录编号:
49734
目录名称:
STARLINK-3238
国际标识:
2021-115L
轨道中心:
EARTH
卫星名称:
星链-3238
卫星全名:
星链-3238 (STARLINK-3238 )
卫星状态:
在轨 (已飞行1658 天)
发射日期:
2021-12-02 UTC
国别 :
美国 (US)
星等 :
--
轨道信息
数据来源 国际轨道数据 AOE轨道数据
星历时间 2026-06-18T00:00:02+0800
6小时前
查看轨道信息
2026-06-13T00:00:00+0800
5天前
查看轨道信息
半长轴 6909.461km 6917.838km
偏心率 0.0002099 0.0001342
轨道倾角 53.159° 53.159°
近地点辐角 96.614° 84.202°
升交点赤经 60.218° 82.711°
平近点角 143.410° 333.761°
近地点 529.873km 538.772km
远地点 532.775km 540.63km
周期 95.263分钟 95.437分钟
每日圈数 15.115988 15.088541
详细信息
固有亮度:
5
最大亮度:
2.5
卫星平台:
Starlink v1.5
覆盖范围:
全球
运营商:
太空探索技术公司
运营商所在国:
美国
制造商(研发单位):
太空探索技术公司
制造商所在国:
美国
使用方式:
暂无
卫星简介
星链(Starlink)计划是由太空探索技术公司(SpaceX)提出的一个巨型低轨卫星互联网星座项目,计划在2019年至2024年间在太空搭建由约1.2万颗卫星组成的“星链”网络,其中1584颗将部署在地球上空550千米处的近地轨道,并从2020年开始工作。该卫星仍在工作。
2D轨道图
3D轨道图
轨道高度分析图
轨道倾角分析图
轨道综合分析图
查看轨道综合分析图